Regional Weather Roundup
Issued by NWS

Home | Current Version | Previous Version | Text Only | Print | Product List | Glossary On
Versions: 1 2 3 4 5 6 7 8 9 10 11 12 13 14 15 16 17 18 19 20 21 22 23 24 25 26 27 28 29 30 31 32 33 34 35 36 37 38 39 40 41 42 43 44 45 46 47 48 49 50
000
ASUS44 KJAN 271510
RWRMS

MISSISSIPPI HOURLY WEATHER ROUNDUP
NATIONAL WEATHER SERVICE JACKSON MS
900 AM CST TUE JAN 27 2015

NOTE: "FAIR: INDICATES FEW OR NO CLOUDS BELOW 12,000 FEET WITH NO
SIGNIFICANT WEATHER AND/OR OBSTRUCTIONS TO VISIBILITY.

MSZ001>002-007>008-010>013-018>021-025>028-034>036-271600-
NORTHWEST MISSISSIPPI

CITY           SKY/WX    TMP DP  RH WIND       PRES   REMARKS
CLARKSDALE     FAIR      48  39  71 NW8       30.13R
CLEVELAND      FAIR      50  42  72 N7        30.11R
GREENWOOD      SUNNY     47  40  76 CALM      30.11R
GREENVILLE     SUNNY     52  39  61 N10       30.12R
GRENADA        FAIR      48  37  66 N9G16     30.11R
OLIVE BRANCH   SUNNY     45  39  81 N12G20    30.10R
OXFORD         FAIR      45  36  70 N12       30.11R
TUNICA         SUNNY     48  37  66 NW12      30.13R
$$

MSZ003>006-009-014>017-022>024-029>033-037>039-271600-
NORTHEAST MISSISSIPPI

CITY           SKY/WX    TMP DP  RH WIND       PRES   REMARKS
COLUMBUS AFB   SUNNY     47  37  68 NW9       30.08R
CORINTH        FAIR      43  36  75 NW7       30.06R
GOLDN TRIANGLE SUNNY     46  37  71 NW7       30.06R
STARKVILLE     FAIR      50  37  62 NW5       30.08R
TUPELO         SUNNY     47  35  63 N10       30.07R
$$

MSZ040-058-271600-
CENTRAL MISSISSIPPI

CITY           SKY/WX    TMP DP  RH WIND       PRES   REMARKS
JACKSON INTL   SUNNY     53  38  56 NW7       30.11R
JACKSON HAWKNS SUNNY     51  37  58 NW7       30.11R
MERIDIAN KEY   SUNNY     49  39  68 NE3       30.09R
MERIDIAN NAS   SUNNY     49  37  63 NW9       30.08R
RAYMOND        FAIR      46  41  81 MISG      30.12R
VICKSBURG      SUNNY     51  40  65 CALM      30.13R
$$

MSZ059>079-271600-
SOUTH MISSISSIPPI

CITY           SKY/WX    TMP DP  RH WIND       PRES   REMARKS
BROOKHAVEN     FAIR      54  39  58 N7        30.13R
HATTIESBURG    SUNNY     53  39  59 NW6       30.11R
MCCOMB         SUNNY     55  39  54 N9        30.11R
NATCHEZ        SUNNY     52  41  66 N5        30.14R
PINE BELT      SUNNY     54  37  54 NW6       30.11R
$$

MSZ080>082-271600-
COASTAL MISSISSIPPI

CITY           SKY/WX    TMP DP  RH WIND       PRES   REMARKS
BAY ST LOUIS   SUNNY     50  37  62 NW3       30.12R
BILOXI         SUNNY     53  39  58 N8        30.11R
PASCAGOULA     SUNNY     55  38  52 NW6       30.10R
GULFPORT       SUNNY     55  39  54 NW7       30.11R
$$


USA.gov is the U.S. government's official web portal to all federal, state and local government web resources and services.